Home   Weather   Columbia   Past weeks
Flag for USA

Past Weather in Columbia, South Carolina, USA — Yesterday and Last 2 Weeks

Now
80 °F

Clear.


Feels Like: 83 °F
Forecast: 95 / 75 °F
Wind: 5 mph from South

Location: Columbia Owens Downtown Airport

Current Time: Jul 18, 2019 at 10:19:38 pm

Latest Report: Jul 18, 2019 at 8:53 pm


Visibility: 10 mi

Pressure: 29.99 "Hg

Humidity: 69%

Dew Point: 69 °F

Location of ColumbiaLocation

Past Weather in Columbia — Graph

°F

Columbia Temperature Yesterday

Maximum temperature yesterday: 97 °F (at 4:53 pm)
Minimum temperature yesterday: 78 °F (at 6:53 am)
Average temperature yesterday: 88 °F

High & Low Weather Summary for the Past Weeks

 TemperatureHumidityPressure
High97 °F (Jul 16, 2:53 pm)97% (Jul 5, 7:23 am)30.13 "Hg (Jul 5, 7:23 am)
Low71 °F (Jul 6, 5:25 am)30% (Jul 16, 2:53 pm)29.82 "Hg (Jul 8, 3:53 pm)
Average83 °F72%30.01 "Hg
* Reported Jul 3 8:53 pm — Jul 18 8:53 pm, Columbia. Weather by CustomWeather, © 2019

Note: Actual official high and low records may vary slightly from our data, if they occured in-between our weather recording intervals... More about our weather records

Advertising

Columbia Weather History for the Previous 24 Hours

Scroll right to see more
 ConditionsComfort  
Time TempWeatherWind HumidityBarometerVisibility
8:53 pm
Thu, Jul 18
80 °FClear.5 mph69%29.99 "Hg10 mi
7:53 pm82 °FSunny.10 mph65%29.99 "Hg10 mi
6:53 pm84 °FSunny.7 mph63%29.98 "Hg10 mi
5:53 pm91 °FSunny.9 mph54%29.96 "Hg10 mi
5:26 pm89 °FPassing clouds.8 mph57%29.98 "Hg10 mi
5:00 pm89 °FThundershowers. Scattered clouds.7 mph53%29.96 "Hg10 mi
4:31 pm90 °FPassing clouds.8 mph50%29.96 "Hg10 mi
4:09 pm91 °FThunderstorms. Passing clouds.7 mph45%29.97 "Hg10 mi
3:53 pm92 °FThundershowers. Sunny.13 mph51%29.96 "Hg10 mi
3:34 pm93 °FThunderstorms. Sunny.12 mph46%29.98 "Hg10 mi
2:53 pm95 °FPassing clouds.13 mph46%29.97 "Hg10 mi
1:53 pm95 °FScattered clouds.10 mph47%29.98 "Hg10 mi
12:53 pm92 °FPassing clouds.8 mph54%30.01 "Hg10 mi
11:53 am92 °FPassing clouds.8 mph54%30.01 "Hg10 mi
10:53 am89 °FSunny.9 mph57%30.02 "Hg10 mi
9:53 am85 °FSunny.7 mph68%30.03 "Hg10 mi
8:53 am81 °FSunny.6 mph72%30.03 "Hg10 mi
7:53 am79 °FSunny.3 mph74%30.02 "Hg10 mi
6:53 am78 °FSunny.3 mph74%30.02 "Hg10 mi
5:53 am76 °FClear.No wind80%30.01 "Hg10 mi
4:53 am77 °FClear.3 mph77%30.01 "Hg10 mi
3:53 am78 °FClear.No wind74%30.01 "Hg10 mi
2:53 am80 °FClear.5 mph69%30.01 "Hg10 mi
1:53 am80 °FClear.3 mph71%30.02 "Hg10 mi
12:53 am82 °FClear.3 mph65%30.02 "Hg10 mi
11:53 pm
Wed, Jul 17
82 °FPassing clouds.5 mph67%30.03 "Hg10 mi
10:53 pm85 °FClear.No wind57%30.02 "Hg10 mi
Weather by CustomWeather, © 2019

See weather overview